Weather History for KDVO - February, 2014

Change the Weather History Date:

Wednesday, February 26, 2014

  Actual Average (KAPC) Record (KAPC)
Temperature  
Mean Temperature - 51 °F  
Max Temperature - 62 °F 72 °F (2002)
Min Temperature - 40 °F 26 °F (2011)
Degree Days  
Heating Degree Days    
Month to date heating degree days  
Since 1 July heating degree days  
Cooling Degree Days    
Month to date cooling degree days  
Year to date cooling degree days  
Moisture  
Dew Point -    
Average Humidity    
Maximum Humidity    
Minimum Humidity    
Precipitation  
Precipitation 0.45 in - 2.44 in (1919)
Month to date precipitation  
Year to date precipitation  
Sea Level Pressure  
Sea Level Pressure 29.84 in    
Wind  
Wind Speed 5 mph (SSE)    
Max Wind Speed 24 mph    
Max Gust Speed 40 mph    
Visibility 6 miles    
Events Rain    
T = Trace of Precipitation, MM = Missing Value Source: NWS Daily Summary

Daily Weather History Graph

Daily Weather History Graph

Search for Another Location

Airport or City:

Trip Planner

Search our weather history database for the weather conditions in past years. The results will help you decide how hot, cold, wet, or windy it might be!

Date:

Astronomy

Feb. 26, 2014 Rise Set
Actual Time 6:46 AM PST 6:00 PM PST
Civil Twilight 6:19 AM PST 6:27 PM PST
Nautical Twilight 5:48 AM PST 6:57 PM PST
Astronomical Twilight 5:18 AM PST 7:28 PM PST
Moon 4:34 AM PST 3:23 PM PST
Length of Visible Light 12h 07m
Length of Day
11h 14m
Waning Crescent, 9% of the Moon is Illuminated
Feb 26
Waning Crescent
Mar 1
New
Mar 8
First Quarter
Mar 16
Full
Mar 23
Last Quarter

Hourly Weather History & Observations

Time (PST) Temp. Dew Point Humidity Pressure Visibility Wind Dir Wind Speed Gust Speed Precip Events Conditions
12:15 AM - - N/A% 29.96 in 10.0 mi Calm Calm - N/A   Unknown
12:35 AM - - N/A% 29.96 in 10.0 mi ENE 4.6 mph - N/A   Unknown
12:55 AM - - N/A% 29.96 in 10.0 mi NE 4.6 mph - N/A   Unknown
1:15 AM - - N/A% 29.97 in 9.0 mi Calm Calm - N/A   Unknown
1:35 AM - - N/A% 29.96 in 9.0 mi ESE 3.5 mph - N/A   Unknown
1:55 AM - - N/A% 29.95 in 10.0 mi South 5.8 mph - N/A   Unknown
2:15 AM - - N/A% 29.95 in 10.0 mi SE 3.5 mph - N/A   Unknown
2:35 AM - - N/A% 29.95 in 10.0 mi WSW 3.5 mph - N/A   Unknown
2:55 AM - - N/A% 29.96 in 10.0 mi SW 3.5 mph - N/A   Unknown
3:15 AM - - N/A% 29.95 in 10.0 mi Calm Calm - N/A   Unknown
3:35 AM - - N/A% 29.95 in 10.0 mi Calm Calm - N/A   Unknown
3:50 AM - - N/A% 29.94 in 10.0 mi NNW 3.5 mph - N/A   Unknown
4:15 AM - - N/A% 29.94 in 10.0 mi NW 3.5 mph - N/A Rain Light Rain
4:35 AM - - N/A% 29.93 in 10.0 mi Calm Calm - N/A   Unknown
4:55 AM - - N/A% 29.92 in 10.0 mi North 3.5 mph - N/A   Unknown
5:15 AM - - N/A% 29.91 in 10.0 mi Calm Calm - N/A   Unknown
5:35 AM - - N/A% 29.91 in 8.0 mi Calm Calm - N/A Rain Light Rain
5:55 AM - - N/A% 29.91 in 10.0 mi South 3.5 mph - N/A   Unknown
6:15 AM - - N/A% 29.91 in 10.0 mi SE 3.5 mph - N/A   Unknown
6:35 AM - - N/A% 29.92 in 10.0 mi SE 3.5 mph - N/A   Unknown
6:55 AM - - N/A% 29.93 in 10.0 mi SSE 4.6 mph - N/A Rain Light Rain
7:15 AM - - N/A% 29.94 in 6.0 mi Calm Calm - N/A Rain Light Rain
7:35 AM - - N/A% 29.94 in 7.0 mi Calm Calm - N/A   Overcast
7:55 AM - - N/A% 29.95 in 7.0 mi Calm Calm - N/A Rain Light Rain
8:15 AM - - N/A% 29.95 in 4.0 mi South 3.5 mph - N/A Rain Light Rain
8:35 AM - - N/A% 29.95 in 3.0 mi Calm Calm - N/A Rain Light Rain
8:55 AM - - N/A% 29.94 in 5.0 mi SE 3.5 mph - N/A Rain Light Rain
9:15 AM - - N/A% 29.94 in 5.0 mi SSE 3.5 mph - N/A Rain Light Rain
9:35 AM - - N/A% 29.94 in 5.0 mi SSE 4.6 mph - N/A Rain Light Rain
9:55 AM - - N/A% 29.94 in 3.0 mi SSE 5.8 mph - N/A Rain Light Rain
10:15 AM - - N/A% 29.93 in 5.0 mi SE 5.8 mph - N/A Rain Light Rain
10:35 AM - - N/A% 29.92 in 4.0 mi SE 5.8 mph - N/A Rain Light Rain
10:55 AM - - N/A% 29.91 in 9.0 mi ESE 9.2 mph - N/A   Overcast
11:15 AM - - N/A% 29.90 in 10.0 mi SE 6.9 mph - N/A Rain Light Rain
11:35 AM - - N/A% 29.90 in 10.0 mi SE 10.4 mph - N/A   Overcast
11:55 AM - - N/A% 29.89 in 2.0 mi ESE 8.1 mph - N/A Rain Light Rain
12:15 PM - - N/A% 29.88 in 2.5 mi ESE 9.2 mph - N/A Rain Light Rain
12:35 PM - - N/A% 29.87 in 1.8 mi SE 11.5 mph - 0.01 in Rain Light Rain
12:55 PM - - N/A% 29.85 in 1.0 mi ESE 12.7 mph 20.7 mph 0.02 in Rain Light Rain
1:15 PM - - N/A% 29.84 in 1.0 mi ESE 11.5 mph - 0.01 in Rain Rain
1:35 PM - - N/A% 29.83 in 1.2 mi ESE 11.5 mph 20.7 mph 0.03 in Rain Light Rain
1:55 PM - - N/A% 29.82 in 1.0 mi ESE 13.8 mph - 0.06 in Rain Light Rain
2:15 PM - - N/A% 29.81 in 1.0 mi East 12.7 mph 16.1 mph 0.01 in Rain Light Rain
2:35 PM - - N/A% 29.81 in 1.0 mi SE 6.9 mph - 0.03 in Rain Light Rain
2:55 PM - - N/A% 29.80 in 0.8 mi SE 5.8 mph - 0.08 in Rain Rain
3:15 PM - - N/A% 29.79 in 1.2 mi SE 6.9 mph - 0.02 in Rain Light Rain
3:35 PM - - N/A% 29.78 in 0.8 mi SE 6.9 mph - 0.07 in Rain Light Rain
3:55 PM - - N/A% 29.76 in 0.8 mi ESE 6.9 mph - 0.09 in Rain Light Rain
4:15 PM - - N/A% 29.75 in 1.0 mi SE 5.8 mph - N/A Rain Light Rain
4:35 PM - - N/A% 29.73 in 0.8 mi SSE 4.6 mph - 0.02 in Rain Light Rain
4:50 PM - - N/A% 29.72 in 1.0 mi South 4.6 mph - 0.02 in Rain Light Rain
5:15 PM - - N/A% 29.72 in 3.0 mi SE 3.5 mph - N/A Rain Light Rain
5:35 PM - - N/A% 29.72 in 1.5 mi Calm Calm - 0.04 in Rain Rain
5:55 PM - - N/A% 29.70 in 1.8 mi SE 5.8 mph - 0.09 in Rain Light Rain
6:15 PM - - N/A% 29.70 in 2.5 mi SSE 11.5 mph 20.7 mph N/A Rain Light Rain
6:35 PM - - N/A% 29.68 in 2.5 mi SSE 9.2 mph 18.4 mph 0.02 in Rain Light Rain
6:55 PM - - N/A% 29.67 in 2.0 mi South 8.1 mph - 0.04 in Rain Light Rain
7:15 PM - - N/A% 29.68 in 1.0 mi SSE 11.5 mph 17.3 mph 0.02 in Rain Light Rain
7:35 PM - - N/A% 29.68 in 1.0 mi South 12.7 mph 21.9 mph 0.04 in Rain Rain
7:55 PM - - N/A% 29.69 in 2.0 mi South 24.2 mph 38.0 mph 0.05 in Rain Light Rain
8:15 PM - - N/A% 29.69 in 9.0 mi South 21.9 mph 40.3 mph N/A   Overcast
8:35 PM - - N/A% 29.69 in 5.0 mi South 15.0 mph 25.3 mph N/A Rain Light Rain
8:55 PM - - N/A% 29.70 in - SSW 13.8 mph 23.0 mph N/A Rain Light Rain
9:15 PM - - N/A% 29.70 in 5.0 mi SW 11.5 mph - N/A Rain Light Rain
9:35 PM - - N/A% 29.71 in 10.0 mi SW 11.5 mph 20.7 mph N/A   Overcast
9:55 PM - - N/A% 29.72 in 5.0 mi SW 13.8 mph 18.4 mph N/A Rain Light Rain
10:15 PM - - N/A% 29.72 in 10.0 mi SW 11.5 mph - N/A   Partly Cloudy
10:35 PM - - N/A% 29.72 in 10.0 mi SW 9.2 mph - N/A   Scattered Clouds
10:55 PM - - N/A% 29.73 in 10.0 mi SW 8.1 mph 17.3 mph N/A   Scattered Clouds
11:15 PM - - N/A% 29.73 in 10.0 mi SW 10.4 mph 17.3 mph N/A   Mostly Cloudy
11:35 PM - - N/A% 29.74 in 10.0 mi WSW 6.9 mph - N/A   Mostly Cloudy
11:55 PM - - N/A% 29.75 in 10.0 mi SW 4.6 mph - N/A   Mostly Cloudy